date,batt_volt,AirTemp_C,Solar_kW,RH,Manual_BP,StationID,WS_ms,PTemp,WS_15min_max,Prog_Sig,Solar_Raw,Bar_mbar,Solar_MJ,Max_WS_2min,Pressure_Raw,Rain_mm,WD_15min_ave,Max_AirTemp_1min,WindDir,WS_15min_med,WS_15min_ave,Elevation_Correction
2020-05-01T00:12:09Z,13.11138,4.915253,0.0,86.64406,0,1156,0.0196,7.904896,0.6664,43690,0.0,1029.272,0.0,0.176,1027.471,0,228.700942406,4.983,222.5309,0.0392,0.0712833333333,1.80078
2020-05-01T00:27:08Z,13.1169,4.915253,0.0,86.94915,0,1156,0.3136,7.728672,0.8624,43690,0.0,1029.272,0.0,0.333,1027.471,0,227.519767403,4.983,244.1919,0.1372,0.16554999881,1.80078
2020-05-01T00:42:12Z,13.12242,4.338982,0.0,87.05085,0,1156,0.0,7.509526,1.2936,43690,0.0,1029.272,0.0,0.0,1027.471,0,181.845527276,4.576,107.8237,0.0,0.0794437863905,1.80078
2020-05-01T00:57:09Z,13.13346,4.101696,0.0,87.62712,0,1156,0.0,7.202266,0.0,43690,0.0,1029.272,0.0,0.0,1027.471,0,104.685352288,4.136,87.2939,0.0,0.0,1.80078
2020-05-01T01:12:13Z,13.14741,3.973812,0.0,88.35448,0,1156,0.0,6.917598,0.098,43690,0.0,1028.872,0.0,0.09800001,1027.072,0,102.306183323,4.006,112.9218,0.0,0.00127573964497,1.80078
2020-05-01T01:27:11Z,13.15434,3.641525,0.0,88.26642,0,1156,0.0,6.70071,0.5292,43690,0.0,1028.872,0.0,0.039,1027.072,0,95.703741968,3.98,84.65032,0.0,0.0396666666667,1.80078
2020-05-01T01:42:09Z,13.15448,4.082733,0.0,88.57238,0,1156,0.0,6.612598,0.8035999,43690,0.0,1028.872,0.0,0.235,1027.072,0,89.3662904989,4.252,86.86603,0.0,0.0198333327381,1.80078
2020-05-01T01:57:09Z,13.14896,4.082733,0.0,85.89351,0,1156,0.0,6.612598,0.588,43690,0.0,1028.872,0.0,0.0,1027.072,0,68.0649166315,4.218,71.65004,0.0,0.0261333333333,1.80078
2020-05-01T02:12:13Z,13.14896,3.743633,0.0,81.62087,0,1156,0.0,6.504162,0.588,43690,0.0,1027.66,0.0,0.333,1025.86,0,78.4707045087,3.811,31.97287,0.0,0.0338650887574,1.80078
2020-05-01T02:27:10Z,13.15448,4.421829,0.0,68.12478,0,1156,0.6272,6.504162,0.6272,43690,0.0,1027.66,0.0,0.314,1025.86,0,68.5972921969,4.49,61.44183,0.0,0.0415333333333,1.80078
2020-05-01T02:42:14Z,13.15448,4.62529,0.0,64.42861,0,1156,0.0,6.590008,0.6468,43690,0.0,1027.66,0.0,0.647,1025.86,0,60.6678003867,4.761,37.82332,0.0,0.0415195266272,1.80078
2020-05-01T02:57:12Z,13.15448,4.557468,0.0,65.37808,0,1156,0.5684,6.635197,1.2348,43690,0.0,1027.66,0.0,0.647,1025.86,0,52.546680148,4.659,258.7443,0.0,0.03675,1.80078
2020-05-01T03:12:11Z,13.14896,4.794838,0.0,70.22718,0,1156,0.3528,6.67812,1.3916,43690,0.0,1028.149,0.0,1.254,1026.348,0,238.386931547,4.829,236.4259,0.2352,0.317449998214,1.80078
2020-05-01T03:27:15Z,13.13791,4.591377,0.0,72.97388,0,1156,0.0,6.852085,1.8228,43690,0.0,1028.149,0.0,1.352,1026.348,0,240.5308777,4.659,204.8864,0.3136,0.459846147929,1.80078
2020-05-01T03:42:12Z,13.13769,4.455006,0.0,73.82041,0,1156,0.0196,6.98312,1.372,43690,0.0,1028.149,0.0,1.196,1026.348,0,216.069552074,4.523,60.52594,0.0,0.146766664881,1.80078
2020-05-01T03:57:15Z,13.12485,4.41721,0.0,74.86504,0,1156,0.0,7.114155,0.686,43690,0.0,1028.149,0.0,0.6860001,1026.348,0,90.854063422,4.485,97.08822,0.0784,0.154712426036,1.80078
2020-05-01T04:12:11Z,13.12946,4.140617,0.0,77.26303,0,1156,0.0,7.093822,0.3332,43690,0.0,1028.247,0.0,0.333,1026.446,0,96.8250497881,4.31,100.4945,0.0,0.0291666666667,1.80078
2020-05-01T04:27:14Z,13.13568,3.975986,0.0,79.37377,0,1156,0.0,6.962788,0.882,43690,0.0,1028.247,0.0,0.176,1026.446,0,91.6019997285,4.077,7.558987,0.1764,0.22244260355,1.80078
2020-05-01T04:42:16Z,13.13737,3.912151,0.0,80.39823,0,1156,0.5684,6.962788,0.7644,43690,0.0,1028.247,0.0,0.588,1026.446,0,78.9180763461,4.014,104.4631,0.0,0.0800236686391,1.80078
2020-05-01T04:57:13Z,13.13772,3.945282,0.0,80.83762,0,1156,0.4704,7.00571,0.6664,43690,0.0,1028.247,0.0,0.568,1026.446,0,99.922748532,3.981,111.2022,0.392,0.349416666667,1.80078
2020-05-01T05:12:16Z,13.13653,3.90974,0.0,81.51275,0,1156,0.5096,7.00571,0.6468,43690,0.0,1027.64,0.0,0.568,1025.84,0,114.720990646,3.979,111.6314,0.1176,0.166078106509,1.80078
2020-05-01T05:27:14Z,13.13767,3.604752,0.0,83.54751,0,1156,0.0588,7.028302,0.7056,43690,0.0,1027.64,0.0,0.588,1025.84,0,109.228576134,3.775,112.1374,0.2842,0.285483333333,1.80078
2020-05-01T05:42:15Z,13.13677,3.775776,0.0,84.09289,0,1156,0.588,6.962788,0.9408,43690,0.0,1027.64,0.0,0.627,1025.84,0,110.276634313,3.776,103.2817,0.4312,0.411368046154,1.80078
2020-05-01T05:57:17Z,13.14299,3.742764,0.0,84.16244,0,1156,0.588,6.962788,0.7448,43690,0.0,1027.64,0.0,0.529,1025.84,0,106.673806237,3.878,99.28725,0.3332,0.317775147929,1.80078
2020-05-01T06:12:14Z,13.14895,3.810932,0.0,84.53611,0,1156,0.4116,6.809154,0.8035999,43690,0.0,1026.353,0.0,0.588,1024.552,0,106.341201499,3.879,101.2382,0.4018,0.383366666071,1.80078
2020-05-01T06:27:16Z,13.16553,3.709721,0.0,85.45267,0,1156,0.2156,6.590008,0.8624,43690,0.0,1026.353,0.0,0.666,1024.552,0,105.093252097,3.778,102.7562,0.4312,0.413107692308,1.80078
2020-05-01T06:42:14Z,13.17105,3.574085,0.0,86.40215,0,1156,0.3528,6.307606,1.9404,43690,0.0,1026.353,0.0,1.94,1024.552,0,112.619392515,3.574,105.3082,0.4116,0.428283329762,1.80078
2020-05-01T06:57:18Z,13.16,3.472355,0.0,87.04644,0,1156,0.0,6.047787,1.372,43690,0.0,1026.353,0.0,1.196,1024.552,0,111.24824829,3.608,104.9471,0.4704,0.488492304734,1.80078
2020-05-01T07:12:14Z,13.16553,3.540176,0.0,87.14817,0,1156,0.0588,5.873829,1.96,43690,0.0,1025.3,0.0,0.9410001,1023.499,0,109.035904574,3.608,100.1319,0.5096,0.571433328571,1.80078
2020-05-01T07:27:17Z,13.16553,3.574085,0.0,86.94471,0,1156,0.0784,5.808308,2.0188,43690,0.0,1025.3,0.0,0.9410001,1023.499,0,108.841016312,3.744,149.4876,0.5292,0.623836681065,1.80078
2020-05-01T07:42:19Z,13.17105,3.641903,0.0,86.5378,0,1156,0.3136,5.74279,2.0776,43690,0.0,1025.3,0.0,2.078,1023.499,0,111.891599782,3.744,110.1475,0.4508,0.480142009467,1.80078
2020-05-01T07:57:16Z,13.17105,3.743633,0.0,86.5717,0,1156,0.7448,5.74279,2.0972,43690,0.0,1025.3,0.0,0.7450001,1023.499,0,110.69364978,3.879,110.629,0.5488,0.59628332619,1.80078
2020-05-01T08:12:19Z,13.17105,3.879272,0.0,86.91081,0,1156,0.5684,5.787975,1.666,43690,0.0,1024.324,0.0,1.666,1022.523,0,108.686390516,3.879,106.4639,0.4508,0.463789349112,1.80078
2020-05-01T08:27:16Z,13.16553,3.879272,0.0,87.18208,0,1156,0.4508,5.873829,0.8624,43690,0.0,1024.324,0.0,0.647,1022.523,0,109.614893519,4.049,99.60222,0.3626,0.347083333333,1.80078
2020-05-01T08:42:19Z,13.16553,4.082733,0.0,87.38554,0,1156,0.1568,6.004864,1.47,43690,0.0,1024.324,0.0,0.804,1022.523,0,112.928638501,4.083,122.4985,0.3724,0.399190531361,1.80078
2020-05-01T08:57:21Z,13.16,4.116642,0.0009648946,87.38554,0,1156,0.4116,6.199162,2.1756,43690,0.06754262,1024.324,4.824474e-06,0.706,1022.523,0,109.297653737,4.151,94.35366,0.4704,0.490811831361,1.80078
2020-05-01T09:12:18Z,13.14896,4.082733,0.004342266,87.21599,0,1156,0.1764,6.330196,1.7052,43690,0.3039586,1023.103,2.171133e-05,0.549,1021.302,0,120.343456849,4.151,147.1041,0.3528,0.400749998214,1.80078
2020-05-01T09:27:20Z,13.14896,4.18446,0.01495574,86.94471,0,1156,0.4312,6.395718,1.2152,43690,1.046902,1023.103,7.477872e-05,1.215,1021.302,0,126.747756671,4.252,115.1312,0.1568,0.204814200592,1.80078
2020-05-01T09:42:18Z,13.15448,4.218372,0.02219119,87.08035,0,1156,0.7056,6.41605,1.8424,43690,1.553384,1023.103,0.000110956,1.842,1021.302,0,112.409214684,4.32,76.77822,0.3528,0.397483330952,1.80078
2020-05-01T09:57:20Z,13.14896,4.18446,0.03135613,86.63953,0,1156,1.2544,6.547085,2.9792,43690,2.194929,1023.103,0.0001567806,1.254,1021.302,0,109.311740548,4.32,119.176,0.6076,0.713370410651,1.80078
2020-05-01T10:12:18Z,13.13791,4.252281,0.03473157,86.60562,0,1156,0.2352,6.655529,2.8224,43690,2.43121,1022.94,0.0001736578,1.196,1021.139,0,109.359660549,4.32,82.7009,0.4116,0.500616663095,1.80078
2020-05-01T10:27:21Z,13.12687,4.693108,0.2561317,85.65614,0,1156,1.5092,6.874676,2.6068,43690,17.92922,1022.94,0.001280659,2.234,1021.139,0,109.268098825,4.659,93.89622,0.5096,0.635202360947,1.80078
2020-05-01T10:42:23Z,13.11364,5.191425,0.2614259,82.9244,0,1156,0.0196,7.464336,4.0964,43690,18.29981,1022.94,0.001307129,0.09800001,1021.139,0,103.122074521,5.26,93.77848,0.0784,0.651091123077,1.80078
2020-05-01T10:57:19Z,13.10043,5.017132,0.2551553,83.22068,0,1156,0.0,7.97041,3.1164,43690,17.86087,1022.94,0.001275776,0.118,1021.139,0,104.919537401,5.085,120.1951,0.0784,0.290966665476,1.80078
2020-05-01T11:12:23Z,13.0893,5.186462,0.2599787,81.89834,0,1156,0.1176,8.390629,4.7824,43690,18.19851,1022.44,0.001299893,4.782,1020.639,0,109.744019709,5.322,109.7492,0.0784,0.448480471006,1.80078
2020-05-01T11:27:21Z,13.0893,4.915276,0.1741118,83.11868,0,1156,0.0,8.566853,0.3528,43690,12.18782,1022.44,0.0008705588,0.09800001,1020.639,0,103.418844529,4.983,107.2221,0.0588,0.0611333333333,1.80078
2020-05-01T11:42:20Z,13.09482,4.847477,0.1553067,83.76275,0,1156,0.0784,8.501339,2.6852,43690,10.87147,1022.44,0.0007765336,0.196,1020.639,0,110.26686344,4.915,101.1089,0.4508,0.627899996429,1.80078
2020-05-01T11:57:24Z,13.10587,4.81358,0.151935,84.88139,0,1156,0.0588,8.390629,4.214,43690,10.63545,1022.44,0.0007596751,4.214,1020.639,0,111.469233077,4.881,103.0824,0.0784,0.51632662426,1.80078
2020-05-01T12:12:20Z,13.10587,5.186462,0.1659223,84.98309,0,1156,2.352,8.368038,3.92,43690,11.61456,1022.926,0.0008296114,2.509,1021.126,0,113.872253804,5.22,117.836,0.97999995,1.1435666625,1.80078
2020-05-01T12:27:23Z,13.10587,5.457646,0.2368265,83.45766,0,1156,1.8816,8.501339,3.2536,43690,16.57785,1022.926,0.001184132,1.98,1021.126,0,111.746611913,5.627,91.19291,0.7056,1.01061774793,1.80078
2020-05-01T12:42:22Z,13.09482,6.339004,0.3732962,81.76275,0,1156,1.0192,8.833446,2.2736,43690,26.13073,1022.926,0.001866481,2.058,1021.126,0,104.252887665,6.271,101.5902,0.6664,0.753316661905,1.80078
2020-05-01T12:57:21Z,13.07274,6.981476,0.4605533,79.0821,0,1156,0.0,9.569958,3.8024,43690,32.23873,1022.926,0.002302767,3.273,1021.126,0,99.6569396618,6.88,102.044,0.8428,1.06271666071,1.80078
2020-05-01T13:12:25Z,13.05404,6.975266,0.3621135,78.49546,0,1156,0.0588,10.24548,4.214,43690,25.34795,1021.437,0.001810568,4.214,1019.636,0,103.065293805,7.111001,94.69107,1.0388,1.18852544024,1.80078
2020-05-01T13:27:22Z,13.04639,7.340298,0.366451,77.94036,0,1156,0.0,10.65214,0.3528,43690,25.65157,1021.437,0.001832255,0.118,1019.636,0,106.208307529,7.442,114.982,0.0196,0.0392,1.80078
2020-05-01T13:42:27Z,13.0352,8.32262,0.366403,75.33043,0,1156,0.0392,10.99329,0.294,43690,25.64821,1021.437,0.001832015,0.176,1019.636,0,106.766292895,8.15,89.79061,0.0196,0.0238911242604,1.80078
2020-05-01T13:57:25Z,13.01864,9.881416,0.4092956,69.84076,0,1156,0.0588,11.65525,2.3324,43690,28.65069,1021.437,0.002046478,1.627,1019.636,0,106.103002792,9.92,94.2657,0.1568,0.489649994048,1.80078
2020-05-01T14:12:23Z,12.99421,11.90423,0.455513,65.32072,0,1156,0.686,12.51151,1.6464,43690,31.88591,1020.879,0.002277565,0.7640001,1019.078,0,54.1750031909,11.9,70.60092,0.1862,0.29504999881,1.80078
2020-05-01T14:27:27Z,12.97021,13.28648,0.9625739,62.87331,0,1156,0.0588,13.84898,1.7248,43690,67.38018,1020.879,0.004812869,0.588,1019.078,0,33.6544439338,13.22,40.5753,0.4116,0.382373963905,1.80078
2020-05-01T14:42:25Z,12.9357,12.76918,0.7686906,64.65748,0,1156,0.588,15.26327,1.6268,43690,53.80834,1020.879,0.003843453,0.9020001,1019.078,0,55.4087734839,12.87,67.26105,0.1764,0.307649996429,1.80078
2020-05-01T14:57:24Z,12.92167,11.06698,0.4866686,68.50696,0,1156,0.588,16.19182,2.9792,43690,34.0668,1020.879,0.002433343,2.803,1019.078,0,80.1229557259,11.34,68.74028,0.5684,0.6577666625,1.80078
2020-05-01T15:12:28Z,12.9271,12.11652,0.8268496,67.59231,0,1156,0.0392,16.29123,3.1752,43690,57.87947,1019.879,0.004134248,3.175,1018.078,0,83.2295996089,12.08,94.12974,0.9015999,1.05051360414,1.80078
2020-05-01T15:27:27Z,12.9271,13.43721,0.9757404,64.07046,0,1156,0.0588,16.6866,3.0968,43690,68.30182,1019.879,0.004878702,1.235,1018.078,0,82.2856494534,13.3,84.65666,0.1176,0.336349997619,1.80078
2020-05-01T15:42:25Z,12.9086,14.37745,0.9900705,62.02956,0,1156,0.6664,17.46379,2.0776,43690,69.30493,1019.879,0.004950352,0.8620001,1018.078,0,74.0184312848,14.45,57.2629,0.3528,0.4558166625,1.80078
2020-05-01T15:57:28Z,12.88424,15.04434,0.6917153,59.34362,0,1156,0.0,18.27711,2.3912,43690,48.42007,1019.879,0.003458576,1.078,1018.078,0,55.1982656013,15.11,263.8361,0.196,0.326125442012,1.80078
2020-05-01T16:12:26Z,12.86759,14.7732,0.7191553,61.20516,0,1156,0.0588,18.97297,1.8032,43690,50.34087,1018.647,0.003595776,0.96,1016.847,0,72.8507913678,15.01,98.83278,0.1764,0.333549998214,1.80078
2020-05-01T16:27:25Z,12.86759,14.87476,0.9763747,61.94991,0,1156,1.0192,19.41578,2.254,43690,68.34623,1018.647,0.004881873,1.627,1016.847,0,77.7220581102,14.77,83.54638,0.1568,0.32724999881,1.80078
2020-05-01T16:42:30Z,12.8731,13.4191,0.9585524,65.47056,0,1156,0.5684,19.44289,3.332,43690,67.09866,1018.647,0.004792762,1.509,1016.847,0,83.0189823948,13.86,65.64016,0.2352,0.53986982071,1.80078
2020-05-01T16:57:27Z,12.8731,14.63779,0.9783014,63.20245,0,1156,0.5096,19.46774,1.7444,43690,68.4811,1018.647,0.004891507,0.882,1016.847,0,82.6885875356,14.81,110.8023,0.2548,0.407749996429,1.80078
2020-05-01T17:12:31Z,12.86759,13.68961,0.9291696,64.59003,0,1156,0.7056,19.67785,2.9988,43690,65.04187,1017.59,0.004645848,1.019,1015.789,0,75.2422814473,13.69,28.72191,0.1372,0.377734910059,1.80078
2020-05-01T17:27:29Z,12.86172,13.11361,0.5943988,67.2637,0,1156,0.0588,19.91733,3.0772,43690,41.60792,1017.59,0.002971994,2.43,1015.789,0,75.344198967,13.25,117.8909,0.3626,0.519049995238,1.80078
2020-05-01T17:42:27Z,12.86116,14.29707,0.7244537,63.50455,0,1156,0.2156,20.10259,2.646,43690,50.71176,1017.59,0.003622268,1.627,1015.789,0,76.7787019721,14.4,55.68733,0.6076,0.595933326786,1.80078
2020-05-01T17:57:31Z,12.84915,14.05431,0.4845747,64.31008,0,1156,0.1176,20.263,1.4308,43690,33.92023,1017.59,0.002422874,0.608,1015.789,0,76.5801215458,14.29,52.46112,0.3136,0.36776094142,1.80078
2020-05-01T18:12:29Z,12.86002,14.12338,0.5182926,65.4964,0,1156,0.7056,20.1297,1.6464,43690,36.28048,1016.372,0.002591463,1.646,1014.571,0,75.0234627454,14.22,95.48021,0.3528,0.390949998214,1.80078
2020-05-01T18:27:32Z,12.86127,13.75221,0.3058697,66.51329,0,1156,0.098,19.9964,2.3128,43690,21.41088,1016.372,0.001529349,2.313,1014.571,0,85.8643551698,13.85,33.09315,0.4508,0.499857985799,1.80078
2020-05-01T18:42:30Z,12.87302,13.07999,0.5279263,68.31341,0,1156,0.9799999,19.41578,2.058,43690,36.95484,1016.372,0.002639632,1.725,1014.571,0,86.6213538669,13.18,98.18275,0.343,0.448782345588,1.80078
2020-05-01T18:57:33Z,12.8731,14.5362,0.6608713,66.6215,0,1156,0.0,19.12885,2.8028,43690,46.26099,1016.372,0.003304356,1.137,1014.571,0,79.3570103677,14.43,71.24033,0.6272,0.68974521465,1.80078
2020-05-01T19:12:49Z,12.85656,14.87473,0.2528844,65.40282,0,1156,0.4508,19.52196,1.3328,43690,17.70191,1015.233,0.001264422,0.823,1013.433,0,59.4283583695,14.94,2.715977,0.2156,0.314745452597,1.80078
2020-05-01T19:27:45Z,12.86207,14.12998,0.1676263,67.8402,0,1156,0.0,19.44289,1.2152,43690,11.73384,1015.233,0.0008381312,1.117,1013.433,0,18.3432835524,14.2,108.6631,0.2548,0.323525637179,1.80078
2020-05-01T19:42:49Z,12.87861,13.55449,0.06358237,69.53282,0,1156,0.7448,18.94585,0.9015999,43690,4.450766,1015.233,0.0003179118,0.7450001,1013.433,0,51.4131080299,13.72,93.08833,0.2156,0.29910295503,1.80078
2020-05-01T19:57:46Z,12.88964,13.35138,0.1025988,70.81921,0,1156,0.0,18.30197,1.4112,43690,7.181918,1015.233,0.0005129941,0.647,1013.433,0,67.725752302,13.55,291.2105,0.3136,0.373449995833,1.80078
2020-05-01T20:12:49Z,12.89515,13.24982,0.0616573,71.69937,0,1156,0.0,17.79138,1.7836,43690,4.31601,1014.258,0.0003082865,0.882,1012.458,0,52.2789758966,13.28,99.09712,0.3332,0.361034313609,1.80078
2020-05-01T20:27:47Z,12.90618,12.57367,0.05973893,73.19013,0,1156,0.0196,17.31241,1.6464,43690,4.181725,1014.258,0.0002986946,1.646,1012.458,0,3.30857725641,12.74,136.4261,0.2156,0.323166661905,1.80078
2020-05-01T20:42:50Z,12.92645,12.28322,0.06504835,77.61214,0,1156,0.6272,16.51264,1.8032,43690,4.553385,1014.258,0.0003252418,1.0,1012.458,0,8.07561748851,12.45,101.2175,0.1764,0.328213013018,1.80078
2020-05-01T20:57:48Z,12.93259,11.94711,0.05107576,81.95046,0,1156,0.0196,15.77386,1.078,43690,3.575303,1014.258,0.0002553788,0.392,1012.458,0,16.979295277,12.08,343.6992,0.0392,0.228666664881,1.80078
2020-05-01T21:12:46Z,12.95467,9.949207,0.04384806,85.70945,0,1156,0.0,15.09383,1.1368,43690,3.069365,1013.05,0.0002192403,1.137,1011.249,0,72.1098141556,9.979999,95.64443,0.0196,0.148983331548,1.80078
2020-05-01T21:27:51Z,12.96773,9.553451,0.03855628,88.2004,0,1156,0.0196,14.30083,0.1372,43690,2.69894,1013.05,0.0001927814,0.118,1011.249,0,86.564940635,9.65,80.20173,0.0196,0.0318934911243,1.80078
2020-05-01T21:42:51Z,12.98106,9.525578,0.0183162,88.85471,0,1156,0.0392,13.72924,0.1764,43690,1.282134,1013.05,9.158099e-05,0.118,1011.249,0,90.0225389993,9.559999,93.17515,0.0196,0.03535,1.80078
2020-05-01T21:57:50Z,12.99767,9.491852,0.0154243,89.36311,0,1156,0.0196,13.21187,0.1372,43690,1.079701,1013.05,7.712151e-05,0.09800001,1011.249,0,87.6396573908,9.66,87.16257,0.0392,0.0400166666667,1.80078
2020-05-01T22:12:49Z,12.99767,9.220852,0.01928038,90.51488,0,1156,0.0,12.85943,0.1764,43690,1.349627,1011.272,9.64019e-05,0.137,1009.471,0,89.0342918787,9.29,97.69712,0.0392,0.0422333333333,1.80078
2020-05-01T22:27:49Z,13.00319,9.255386,0.01108622,91.26136,0,1156,0.0196,12.60414,0.196,43690,0.7760353,1011.272,5.543109e-05,0.09800001,1009.471,0,86.6167856524,9.29,94.23498,0.0392,0.0408333333333,1.80078
2020-05-01T22:42:49Z,13.00414,8.751126,0.007230142,91.94618,0,1156,0.098,12.37143,0.2744,43690,0.50611,1011.272,3.615071e-05,0.216,1009.471,0,86.5532095959,8.95,82.76884,0.0392,0.0519166666667,1.80078
2020-05-01T22:57:50Z,13.00368,8.851441,0.005302104,92.689,0,1156,0.0196,12.18618,0.294,43690,0.3711473,1011.272,2.651052e-05,0.137,1009.471,0,87.1667450488,8.95,95.68309,0.0588,0.0655666666667,1.80078
2020-05-01T23:12:49Z,13.00908,8.850846,0.001928038,93.2299,0,1156,0.0,12.09355,0.1568,43690,0.1349627,1009.676,9.640189e-06,0.078,1007.875,0,86.5522177941,9.09,76.05487,0.0392,0.0428166666667,1.80078
2020-05-01T23:27:50Z,13.01005,9.665199,0.0,93.60501,0,1156,0.0,12.11614,0.196,43690,0.0,1009.676,0.0,0.196,1007.875,0,85.2430204323,9.7,64.39096,0.0392,0.0504,1.80078
2020-05-01T23:42:50Z,13.00955,9.73246,0.0,93.06203,0,1156,0.0196,12.3014,0.2548,43690,0.0,1009.676,0.0,0.078,1007.875,0,92.0330609505,9.9,102.8273,0.0392,0.0569333333333,1.80078
2020-05-01T23:57:50Z,13.0095,9.698662,0.0,93.36709,0,1156,0.098,12.32624,0.2352,43690,0.0,1009.676,0.0,0.118,1007.875,0,90.35458494,9.769999,104.6314,0.0392,0.0462,1.80078
2020-05-02T00:12:50Z,13.01492,10.95124,0.0,94.04298,0,1156,0.0196,12.39402,0.2156,43690,0.0,1008.782,0.0,0.216,1006.981,0,93.0457568829,10.85,218.7841,0.0196,0.0379166666667,1.80078
2020-05-02T00:27:50Z,13.00921,10.98461,0.0,92.78861,0,1156,0.0,12.65158,0.196,43690,0.0,1008.782,0.0,0.078,1006.981,0,145.308873671,10.85,42.86162,0.0,0.0128333333333,1.80078
2020-05-02T00:42:51Z,13.00324,11.66048,0.0,92.24359,0,1156,0.0,12.92947,0.1568,43690,0.0,1008.782,0.0,0.118,1006.981,0,80.9652023615,11.73,8.634582,0.0,0.0191333333333,1.80078
2020-05-02T00:57:51Z,12.99217,12.06642,0.0,91.86996,0,1156,0.0,13.18702,0.2352,43690,0.0,1008.782,0.0,0.196,1006.981,0,76.4403312893,11.93,16.45123,0.049,0.0578666666667,1.80078
2020-05-02T01:12:51Z,12.98665,12.33742,0.0,90.7182,0,1156,0.0588,13.46943,0.5292,43690,0.0,1007.045,0.0,0.451,1005.244,0,13.1420699434,12.44,309.9757,0.0392,0.0522666666667,1.80078
2020-05-02T01:27:51Z,12.97562,12.23579,0.0,89.36318,0,1156,0.2156,13.82413,0.3724,43690,0.0,1007.045,0.0,0.196,1005.244,0,13.4210746307,12.44,280.4405,0.049,0.0642833333333,1.80078
2020-05-02T01:42:51Z,12.9701,11.86317,0.0,89.73581,0,1156,0.1176,14.1088,1.0584,43690,0.0,1007.045,0.0,0.588,1005.244,0,239.420516329,12.1,243.5455,0.0196,0.0895999988095,1.80078
2020-05-02T01:57:51Z,12.96458,12.16805,0.0,88.95668,0,1156,0.2548,14.30083,0.8428,43690,0.0,1007.045,0.0,0.47,1005.244,0,29.4816315644,12.2,251.1458,0.0392,0.0774666666667,1.80078
2020-05-02T02:12:56Z,12.96458,12.16784,0.0,88.75308,0,1156,0.0784,14.44317,0.9211999,43690,0.0,1005.175,0.0,0.647,1003.374,0,24.9676003966,12.2,72.29853,0.0392,0.101131359763,1.80078
2020-05-02T02:27:53Z,12.9645,11.76044,0.0,90.78401,0,1156,0.0,14.37313,0.4508,43690,0.0,1005.175,0.0,0.118,1003.374,0,32.527012489,11.93,32.9739,0.0196,0.0289333333333,1.80078
2020-05-02T02:42:56Z,12.97005,11.72738,0.0,91.59845,0,1156,0.0,14.27598,0.098,43690,0.0,1005.175,0.0,0.078,1003.374,0,20.4866145528,11.8,166.7962,0.0,0.00858224852071,1.80078
2020-05-02T02:57:53Z,12.97009,11.96475,0.0,91.09076,0,1156,0.0196,14.20594,0.1372,43690,0.0,1005.175,0.0,0.137,1003.374,0,255.115867834,12.1,274.7401,0.0,0.01295,1.80078
2020-05-02T03:12:57Z,12.96457,11.93088,0.0,91.49726,0,1156,0.0,14.20594,0.0784,43690,0.0,1004.524,0.0,0.0,1002.723,0,47.4936808842,12.03,29.34281,0.0,0.00777041420118,1.80078
2020-05-02T03:27:55Z,12.96457,12.0325,0.0,91.86989,0,1156,0.0,14.25339,0.0196,43690,0.0,1004.524,0.0,0.0,1002.723,0,83.1310491189,12.1,154.4586,0.0,0.000233333333333,1.80078
2020-05-02T03:42:57Z,12.95906,12.30351,0.0,92.27639,0,1156,0.0,14.30083,0.0784,43690,0.0,1004.524,0.0,0.059,1002.723,0,99.9359965723,12.34,100.6314,0.0,0.00382721893491,1.80078
2020-05-02T03:57:59Z,12.95906,11.38887,0.0,92.6829,0,1156,0.0,14.34828,0.1176,43690,0.0,1004.524,0.0,0.039,1002.723,0,103.042547775,11.42,100.2947,0.0,0.00846627218935,1.80078
2020-05-02T04:12:55Z,12.95906,12.54062,0.0,92.07311,0,1156,0.0392,14.37313,0.1176,43690,0.0,1002.241,0.0,0.078,1000.44,0,104.404861352,12.64,122.2296,0.0,0.0172666666667,1.80078
2020-05-02T04:27:58Z,12.95323,11.62557,0.0,91.86912,0,1156,0.098,14.49061,0.1372,43690,0.0,1002.241,0.0,0.118,1000.44,0,106.085239091,11.66,102.4104,0.0,0.0172804733728,1.80078
2020-05-02T04:42:57Z,12.95273,12.7424,0.0,91.32531,0,1156,0.0,14.58776,0.1764,43690,0.0,1002.241,0.0,0.176,1000.44,0,175.97727741,12.95,131.5098,0.0,0.01505,1.80078
2020-05-02T04:57:59Z,12.94593,12.53106,0.0,91.34511,0,1156,0.0,14.80465,0.1568,43690,0.0,1002.241,0.0,0.078,1000.44,0,238.96262719,12.7,249.5127,0.0,0.0168165680473,1.80078
2020-05-02T05:12:57Z,12.94979,12.62722,0.0,89.64238,0,1156,0.0,14.94924,0.1568,43690,0.0,1001.408,0.0,0.09800001,999.6068,0,225.113385474,12.7,198.897,0.0196,0.0315,1.80078
2020-05-02T05:27:59Z,12.94373,12.69248,0.0,89.60431,0,1156,0.0,15.02153,0.1372,43690,0.0,1001.408,0.0,0.0,999.6068,0,224.514759865,12.59,222.6667,0.0,0.00417514792899,1.80078
2020-05-02T05:42:56Z,12.94368,12.52288,0.0,89.84088,0,1156,0.0,15.04413,0.0392,43690,0.0,1001.408,0.0,0.02,999.6068,0,235.576473993,12.79,240.9866,0.0,0.0007,1.80078
2020-05-02T05:58:00Z,12.944,12.11837,0.0,92.07917,0,1156,0.0,14.87694,0.0588,43690,0.0,1001.408,0.0,0.039,999.6068,0,239.825762585,12.05,224.6451,0.0,0.00417514792899,1.80078
2020-05-02T06:12:58Z,12.95057,11.75033,0.0,90.9695,0,1156,0.0,14.80465,0.0392,43690,0.0,1000.796,0.0,0.02,998.9956,0,231.231099788,12.26,236.6155,0.0,0.00221666666667,1.80078
2020-05-02T06:28:02Z,12.96309,9.855389,0.0,91.95474,0,1156,0.0,14.56291,0.0392,43690,0.0,1000.796,0.0,0.02,998.9956,0,250.568736614,10.02,279.4273,0.0,0.0011164556962,1.80078
2020-05-02T06:43:01Z,12.97543,9.49136,0.0,93.39334,0,1156,0.0,14.03876,0.098,43690,0.0,1000.796,0.0,0.09800001,998.9956,0,276.221747702,9.63,281.4957,0.0,0.00287133757962,1.80078
2020-05-02T06:57:59Z,12.99216,8.238468,0.0,94.17341,0,1156,0.0196,13.42424,0.0784,43690,0.0,1000.796,0.0,0.039,998.9956,0,285.837603637,8.309999,290.4457,0.0,0.00508148148148,1.80078
2020-05-02T07:13:03Z,13.00871,7.696461,0.0,94.71542,0,1156,0.0,12.74421,0.0196,43690,0.0,1001.597,0.0,0.02,999.7966,0,278.79763335,7.764001,277.6503,0.0,0.000670085470085,1.80078
2020-05-02T07:27:59Z,13.02064,7.325497,0.0,95.12526,0,1156,0.0,12.09355,0.0,43690,0.0,1001.597,0.0,0.0,999.7966,0,275.571582884,7.359,283.8175,0.0,0.0,1.80078
2020-05-02T07:43:02Z,13.03425,7.065964,0.0,95.41955,0,1156,0.0,11.61007,0.0,43690,0.0,1001.597,0.0,0.0,999.7966,0,276.750932148,7.099001,279.46,0.0,0.0,1.80078